| time (UTC) | temp F | wind direction | speed MPH | gust MPH | rain 1hr in | rain 24hr in | rain mn in | humidity % | barometer mb |
| 20260503184016 | 56 | 203 | 1.0 | 3.0 | 0.00 | 0.00 | 0.00 | 80 | 1014.0 |
| 20260503183536 | 56 | 203 | 2.0 | 4.0 | 0.00 | 0.00 | 0.00 | 80 | 1013.9 |
| 20260503183058 | 56 | 203 | 3.0 | 9.0 | 0.00 | 0.00 | 0.00 | 79 | 1014.0 |
| 20260503182517 | 56 | 158 | 3.0 | 6.0 | 0.00 | 0.00 | 0.00 | 77 | 1014.0 |
| 20260503182036 | 56 | 203 | 3.0 | 6.0 | 0.00 | 0.00 | 0.00 | 78 | 1013.9 |
| 20260503181516 | 56 | 158 | 4.0 | 9.0 | 0.00 | 0.00 | 0.00 | 78 | 1013.9 |
| 20260503181016 | 55 | 158 | 4.0 | 10.0 | 0.00 | 0.00 | 0.00 | 79 | 1013.8 |
| 20260503180638 | 55 | 158 | 3.0 | 6.0 | 0.00 | 0.00 | 0.00 | 81 | 1013.9 |
| 20260503180016 | 54 | 158 | 4.0 | 10.0 | 0.00 | 0.00 | 0.00 | 82 | 1013.8 |
| 20260503175516 | 53 | 203 | 4.0 | 12.0 | 0.00 | 0.00 | 0.00 | 85 | 1013.7 |
| 20260503175036 | 53 | 180 | 4.0 | 8.0 | 0.00 | 0.00 | 0.00 | 86 | 1013.7 |
| 20260503174516 | 52 | 180 | 2.0 | 4.0 | 0.00 | 0.00 | 0.00 | 91 | 1013.6 |
| 20260503174016 | 52 | 203 | 3.0 | 7.0 | 0.00 | 0.00 | 0.00 | 90 | 1013.7 |
| 20260503173516 | 52 | 158 | 3.0 | 7.0 | 0.00 | 0.00 | 0.00 | 90 | 1013.6 |
| 20260503173036 | 53 | 158 | 4.0 | 10.0 | 0.00 | 0.00 | 0.00 | 88 | 1013.5 |
| 20260503172517 | 52 | 158 | 4.0 | 11.0 | 0.00 | 0.00 | 0.00 | 88 | 1013.6 |
| 20260503172016 | 52 | 180 | 5.0 | 11.0 | 0.00 | 0.00 | 0.00 | 88 | 1013.3 |
| 20260503171516 | 52 | 158 | 4.0 | 10.0 | 0.00 | 0.00 | 0.00 | 89 | 1013.5 |
| 20260503171016 | 53 | 180 | 4.0 | 8.0 | 0.00 | 0.00 | 0.00 | 89 | 1013.6 |
| 20260503170516 | 53 | 180 | 4.0 | 8.0 | 0.00 | 0.00 | 0.00 | 86 | 1013.7 |
| 20260503150516 | 51 | 158 | 2.0 | 4.0 | 0.00 | 0.00 | 0.00 | 89 | 1013.0 |
| 20260503131016 | 50 | 158 | 2.0 | 4.0 | 0.00 | 0.00 | 0.00 | 90 | 1011.6 |
| 20260503130520 | 50 | 135 | 2.0 | 5.0 | 0.00 | 0.00 | 0.00 | 90 | 1011.5 |
| 20260503110516 | 50 | 180 | 1.0 | 3.0 | 0.00 | 0.00 | 0.00 | 90 | 1011.7 |
| 20260503081515 | 50 | 180 | 2.0 | 5.0 | 0.00 | 0.00 | 0.00 | 89 | 1012.2 |
| 20260503081015 | 50 | 180 | 2.0 | 4.0 | 0.00 | 0.00 | 0.00 | 90 | 1012.3 |
| 20260503080516 | 50 | 203 | 2.0 | 5.0 | 0.00 | 0.00 | 0.00 | 90 | 1012.4 |
| 20260503072515 | 50 | 158 | 2.0 | 4.0 | 0.00 | 0.00 | 0.00 | 90 | 1012.4 |
| 20260503072016 | 50 | 180 | 2.0 | 4.0 | 0.00 | 0.00 | 0.00 | 90 | 1012.4 |
| 20260503071516 | 50 | 180 | 2.0 | 5.0 | 0.00 | 0.00 | 0.00 | 89 | 1012.3 |
| 20260503071015 | 50 | 180 | 2.0 | 3.0 | 0.00 | 0.00 | 0.00 | 89 | 1012.3 |
| 20260503070515 | 50 | 180 | 1.0 | 3.0 | 0.00 | 0.00 | 0.00 | 89 | 1012.4 |
| 20260503055019 | 50 | 180 | 2.0 | 4.0 | 0.00 | 0.00 | 0.00 | 89 | 1012.7 |
| 20260503054517 | 50 | 180 | 2.0 | 5.0 | 0.00 | 0.00 | 0.00 | 89 | 1012.7 |
| 20260503054017 | 50 | 180 | 2.0 | 4.0 | 0.00 | 0.00 | 0.00 | 89 | 1012.8 |
| 20260503053518 | 50 | 180 | 2.0 | 4.0 | 0.00 | 0.00 | 0.00 | 89 | 1012.8 |
| 20260503053017 | 50 | 180 | 2.0 | 4.0 | 0.00 | 0.00 | 0.00 | 89 | 1012.8 |
| 20260503052637 | 50 | 180 | 2.0 | 4.0 | 0.00 | 0.00 | 0.00 | 89 | 1012.8 |
| 20260503052017 | 50 | 180 | 3.0 | 5.0 | 0.00 | 0.00 | 0.00 | 89 | 1012.8 |
| 20260503051517 | 50 | 180 | 2.0 | 4.0 | 0.00 | 0.00 | 0.00 | 89 | 1012.7 |
| 20260503051017 | 50 | 203 | 2.0 | 6.0 | 0.00 | 0.00 | 0.00 | 88 | 1012.8 |
| 20260503050517 | 50 | 180 | 2.0 | 6.0 | 0.00 | 0.00 | 0.00 | 88 | 1012.7 |
| 20260503050018 | 50 | 180 | 2.0 | 6.0 | 0.00 | 0.00 | 0.00 | 88 | 1012.7 |
| 20260503045517 | 50 | 180 | 2.0 | 5.0 | 0.00 | 0.00 | 0.00 | 88 | 1012.7 |
| 20260503045037 | 50 | 203 | 2.0 | 9.0 | 0.00 | 0.00 | 0.00 | 89 | 1012.7 |
| 20260503044537 | 50 | 180 | 2.0 | 5.0 | 0.00 | 0.00 | 0.00 | 89 | 1012.6 |
| 20260503044017 | 50 | 180 | 2.0 | 5.0 | 0.00 | 0.00 | 0.00 | 88 | 1012.7 |
| 20260503043517 | 50 | 158 | 2.0 | 5.0 | 0.00 | 0.00 | 0.00 | 89 | 1012.6 |
| 20260503043017 | 50 | 180 | 2.0 | 4.0 | 0.00 | 0.00 | 0.00 | 88 | 1012.6 |
| 20260503042602 | 50 | 180 | 2.0 | 4.0 | 0.00 | 0.00 | 0.00 | 88 | 1012.5 |
| 20260503042017 | 50 | 180 | 2.0 | 3.0 | 0.00 | 0.00 | 0.00 | 88 | 1012.5 |
| 20260503041517 | 50 | 203 | 2.0 | 4.0 | 0.00 | 0.00 | 0.00 | 88 | 1012.4 |
| 20260503041017 | 50 | 203 | 2.0 | 4.0 | 0.00 | 0.00 | 0.00 | 88 | 1012.4 |
| 20260503040517 | 50 | 180 | 2.0 | 5.0 | 0.00 | 0.00 | 0.00 | 88 | 1012.6 |
| 20260503040017 | 50 | 180 | 2.0 | 5.0 | 0.00 | 0.00 | 0.00 | 88 | 1012.4 |
| 20260503035517 | 50 | 180 | 2.0 | 5.0 | 0.00 | 0.00 | 0.00 | 88 | 1012.4 |
| 20260503035018 | 50 | 180 | 2.0 | 5.0 | 0.00 | 0.00 | 0.00 | 88 | 1012.4 |
| 20260503034517 | 50 | 180 | 2.0 | 5.0 | 0.00 | 0.00 | 0.00 | 88 | 1012.4 |
| 20260503034017 | 51 | 180 | 3.0 | 6.0 | 0.00 | 0.00 | 0.00 | 88 | 1012.4 |
| 20260503033517 | 51 | 180 | 2.0 | 5.0 | 0.00 | 0.00 | 0.00 | 88 | 1012.3 |
| 20260503033018 | 51 | 180 | 2.0 | 6.0 | 0.00 | 0.00 | 0.00 | 88 | 1012.2 |
| 20260503032517 | 51 | 180 | 2.0 | 6.0 | 0.00 | 0.00 | 0.00 | 88 | 1012.2 |
| 20260503032017 | 51 | 203 | 2.0 | 6.0 | 0.00 | 0.00 | 0.00 | 87 | 1012.2 |
| 20260503031517 | 51 | 180 | 2.0 | 4.0 | 0.00 | 0.00 | 0.00 | 87 | 1012.1 |
| 20260503031039 | 51 | 203 | 2.0 | 4.0 | 0.00 | 0.00 | 0.00 | 87 | 1012.0 |
| 20260503030518 | 51 | 180 | 1.0 | 4.0 | 0.00 | 0.00 | 0.00 | 87 | 1012.0 |
| 20260503030017 | 51 | 203 | 1.0 | 4.0 | 0.00 | 0.00 | 0.00 | 87 | 1011.8 |
| 20260503025517 | 51 | 158 | 1.0 | 4.0 | 0.00 | 0.00 | 0.00 | 86 | 1011.8 |
| 20260503025017 | 51 | 203 | 1.0 | 4.0 | 0.00 | 0.00 | 0.00 | 86 | 1011.8 |
| 20260503024522 | 51 | 180 | 1.0 | 6.0 | 0.00 | 0.00 | 0.00 | 86 | 1011.8 |
| 20260503024017 | 52 | 203 | 1.0 | 4.0 | 0.00 | 0.00 | 0.00 | 86 | 1011.9 |
| 20260503023517 | 52 | 180 | 2.0 | 7.0 | 0.00 | 0.00 | 0.00 | 85 | 1012.0 |
| 20260503023017 | 52 | 203 | 1.0 | 3.0 | 0.00 | 0.00 | 0.00 | 85 | 1011.9 |
| 20260503022517 | 52 | 225 | 1.0 | 3.0 | 0.00 | 0.00 | 0.00 | 85 | 1011.9 |
| 20260503022017 | 52 | 203 | 2.0 | 7.0 | 0.00 | 0.00 | 0.00 | 84 | 1011.9 |
| 20260503021517 | 52 | 203 | 1.0 | 5.0 | 0.00 | 0.00 | 0.00 | 84 | 1011.9 |
| 20260503021017 | 52 | 203 | 1.0 | 5.0 | 0.00 | 0.00 | 0.00 | 84 | 1012.0 |
| 20260503020517 | 53 | 180 | 1.0 | 2.0 | 0.00 | 0.00 | 0.00 | 83 | 1012.0 |
| 20260503020022 | 53 | 248 | 1.0 | 3.0 | 0.00 | 0.00 | 0.00 | 83 | 1011.9 |
| 20260503015517 | 53 | 203 | 1.0 | 4.0 | 0.00 | 0.00 | 0.00 | 83 | 1011.9 |
| 20260503015017 | 53 | 180 | 2.0 | 5.0 | 0.00 | 0.00 | 0.00 | 82 | 1012.0 |
| 20260503014517 | 53 | 203 | 2.0 | 9.0 | 0.00 | 0.00 | 0.00 | 81 | 1012.1 |
| 20260503014017 | 53 | 180 | 1.0 | 3.0 | 0.00 | 0.00 | 0.00 | 81 | 1012.1 |
| 20260503013517 | 53 | 203 | 1.0 | 3.0 | 0.00 | 0.00 | 0.00 | 81 | 1012.0 |
| 20260503013018 | 54 | 203 | 1.0 | 3.0 | 0.00 | 0.00 | 0.00 | 81 | 1012.1 |
| 20260503012517 | 54 | 203 | 2.0 | 4.0 | 0.00 | 0.00 | 0.00 | 80 | 1012.3 |
| 20260503012017 | 54 | 203 | 1.0 | 4.0 | 0.00 | 0.00 | 0.00 | 80 | 1012.3 |
| 20260503011517 | 54 | 180 | 1.0 | 2.0 | 0.00 | 0.00 | 0.00 | 80 | 1012.2 |
| 20260503011037 | 54 | 203 | 2.0 | 4.0 | 0.00 | 0.00 | 0.00 | 79 | 1012.3 |
| 20260503010517 | 55 | 158 | 2.0 | 5.0 | 0.00 | 0.00 | 0.00 | 78 | 1012.3 |
| 20260503010017 | 55 | 203 | 2.0 | 4.0 | 0.00 | 0.00 | 0.00 | 79 | 1012.3 |
| 20260503005517 | 55 | 203 | 2.0 | 4.0 | 0.00 | 0.00 | 0.00 | 79 | 1012.3 |
| 20260503005017 | 55 | 225 | 2.0 | 5.0 | 0.00 | 0.00 | 0.00 | 79 | 1012.2 |
| 20260503004658 | 55 | 180 | 2.0 | 6.0 | 0.00 | 0.00 | 0.00 | 78 | 1012.3 |
| 20260503004017 | 55 | 203 | 3.0 | 6.0 | 0.00 | 0.00 | 0.00 | 78 | 1012.3 |
| 20260503003537 | 55 | 203 | 2.0 | 6.0 | 0.00 | 0.00 | 0.00 | 78 | 1012.4 |
| 20260503003016 | 55 | 225 | 2.0 | 5.0 | 0.00 | 0.00 | 0.00 | 78 | 1012.4 |
| 20260503002517 | 55 | 180 | 3.0 | 5.0 | 0.00 | 0.00 | 0.00 | 77 | 1012.3 |
| 20260503002016 | 56 | 203 | 2.0 | 5.0 | 0.00 | 0.00 | 0.00 | 77 | 1012.5 |
| 20260503001537 | 56 | 203 | 3.0 | 5.0 | 0.00 | 0.00 | 0.00 | 76 | 1012.5 |
| 20260503001016 | 56 | 203 | 2.0 | 6.0 | 0.00 | 0.00 | 0.00 | 76 | 1012.4 |
| 20260503000517 | 56 | 203 | 2.0 | 4.0 | 0.00 | 0.00 | 0.00 | 77 | 1012.4 |
| 20260503000017 | 57 | 203 | 3.0 | 5.0 | 0.00 | 0.00 | 0.00 | 76 | 1012.5 |
| 20260502235516 | 57 | 180 | 3.0 | 6.0 | 0.00 | 0.00 | 0.00 | 75 | 1012.5 |
| 20260502235037 | 58 | 203 | 3.0 | 7.0 | 0.00 | 0.00 | 0.00 | 74 | 1012.6 |
| 20260502234518 | 58 | 203 | 3.0 | 6.0 | 0.00 | 0.00 | 0.00 | 73 | 1012.6 |
| 20260502234037 | 57 | 180 | 2.0 | 5.0 | 0.00 | 0.00 | 0.00 | 75 | 1012.6 |
| 20260502233516 | 57 | 203 | 2.0 | 6.0 | 0.00 | 0.00 | 0.00 | 75 | 1012.6 |
| 20260502233017 | 57 | 203 | 2.0 | 4.0 | 0.00 | 0.00 | 0.00 | 75 | 1012.7 |
| 20260502232517 | 57 | 203 | 2.0 | 5.0 | 0.00 | 0.00 | 0.00 | 76 | 1012.8 |
| 20260502232017 | 57 | 203 | 3.0 | 6.0 | 0.00 | 0.00 | 0.00 | 75 | 1012.8 |
| 20260502231517 | 57 | 203 | 2.0 | 5.0 | 0.00 | 0.00 | 0.00 | 76 | 1012.8 |
| 20260502231016 | 56 | 203 | 2.0 | 8.0 | 0.00 | 0.00 | 0.00 | 78 | 1012.8 |
| 20260502230517 | 57 | 203 | 4.0 | 7.0 | 0.00 | 0.00 | 0.00 | 76 | 1012.8 |
| 20260502230017 | 57 | 158 | 3.0 | 6.0 | 0.00 | 0.00 | 0.00 | 76 | 1013.1 |
| 20260502225517 | 57 | 180 | 3.0 | 6.0 | 0.00 | 0.00 | 0.00 | 75 | 1013.1 |
| 20260502225017 | 58 | 203 | 2.0 | 6.0 | 0.00 | 0.00 | 0.00 | 75 | 1013.1 |
| 20260502224516 | 57 | 203 | 3.0 | 7.0 | 0.00 | 0.00 | 0.00 | 75 | 1013.1 |
| 20260502224017 | 57 | 203 | 3.0 | 6.0 | 0.00 | 0.00 | 0.00 | 77 | 1013.3 |
| 20260502223516 | 57 | 180 | 3.0 | 8.0 | 0.00 | 0.00 | 0.00 | 76 | 1013.4 |
| 20260502223016 | 56 | 180 | 3.0 | 7.0 | 0.00 | 0.00 | 0.00 | 77 | 1013.4 |
| 20260502222517 | 56 | 180 | 4.0 | 9.0 | 0.00 | 0.00 | 0.00 | 78 | 1013.5 |
| 20260502222057 | 56 | 180 | 3.0 | 7.0 | 0.00 | 0.00 | 0.00 | 76 | 1013.5 |
| 20260502221521 | 56 | 180 | 2.0 | 5.0 | 0.00 | 0.00 | 0.00 | 76 | 1013.6 |
| 20260502221017 | 57 | 180 | 3.0 | 5.0 | 0.00 | 0.00 | 0.00 | 75 | 1013.7 |
| 20260502220517 | 56 | 180 | 3.0 | 7.0 | 0.00 | 0.00 | 0.00 | 76 | 1013.6 |
| 20260502220016 | 56 | 158 | 4.0 | 6.0 | 0.00 | 0.00 | 0.00 | 77 | 1013.7 |
| 20260502215516 | 56 | 203 | 3.0 | 7.0 | 0.00 | 0.00 | 0.00 | 77 | 1013.7 |
| 20260502215016 | 56 | 158 | 5.0 | 8.0 | 0.00 | 0.00 | 0.00 | 77 | 1013.7 |
| 20260502214517 | 55 | 180 | 4.0 | 7.0 | 0.00 | 0.00 | 0.00 | 78 | 1013.7 |
| 20260502214016 | 55 | 203 | 4.0 | 9.0 | 0.00 | 0.00 | 0.00 | 77 | 1013.7 |
| 20260502213516 | 55 | 180 | 3.0 | 7.0 | 0.00 | 0.00 | 0.00 | 79 | 1013.7 |
| 20260502213016 | 55 | 203 | 3.0 | 6.0 | 0.00 | 0.00 | 0.00 | 79 | 1013.8 |
| 20260502212517 | 55 | 203 | 4.0 | 10.0 | 0.00 | 0.00 | 0.00 | 80 | 1013.8 |
| 20260502212017 | 54 | 203 | 3.0 | 7.0 | 0.00 | 0.00 | 0.00 | 81 | 1013.8 |
| 20260502211537 | 54 | 203 | 3.0 | 6.0 | 0.00 | 0.00 | 0.00 | 81 | 1013.9 |
| 20260502211021 | 54 | 180 | 3.0 | 9.0 | 0.00 | 0.00 | 0.00 | 82 | 1013.9 |
| 20260502210516 | 54 | 203 | 4.0 | 8.0 | 0.00 | 0.00 | 0.00 | 81 | 1014.0 |
| 20260502210016 | 54 | 180 | 3.0 | 7.0 | 0.00 | 0.00 | 0.00 | 82 | 1014.2 |
| 20260502205516 | 54 | 180 | 4.0 | 8.0 | 0.00 | 0.00 | 0.00 | 82 | 1014.2 |
| 20260502205021 | 54 | 180 | 2.0 | 5.0 | 0.00 | 0.00 | 0.00 | 82 | 1014.1 |
| 20260502204516 | 54 | 180 | 3.0 | 7.0 | 0.00 | 0.00 | 0.00 | 83 | 1014.2 |
| 20260502204016 | 54 | 158 | 4.0 | 10.0 | 0.00 | 0.00 | 0.00 | 84 | 1014.2 |
| 20260502203516 | 53 | 158 | 4.0 | 11.0 | 0.00 | 0.00 | 0.00 | 85 | 1014.2 |
| 20260502203017 | 53 | 158 | 4.0 | 9.0 | 0.00 | 0.00 | 0.00 | 84 | 1014.3 |
| 20260502202516 | 53 | 158 | 4.0 | 10.0 | 0.00 | 0.00 | 0.00 | 86 | 1014.4 |
| 20260502202016 | 53 | 158 | 4.0 | 8.0 | 0.00 | 0.00 | 0.00 | 87 | 1014.5 |
| 20260502201516 | 53 | 158 | 5.0 | 9.0 | 0.00 | 0.00 | 0.00 | 86 | 1014.5 |
| 20260502201017 | 53 | 158 | 5.0 | 11.0 | 0.00 | 0.00 | 0.00 | 86 | 1014.5 |
| 20260502200516 | 53 | 180 | 5.0 | 10.0 | 0.00 | 0.00 | 0.00 | 87 | 1014.6 |
| 20260502200016 | 53 | 180 | 5.0 | 10.0 | 0.00 | 0.00 | 0.00 | 87 | 1014.6 |
| 20260502195516 | 53 | 158 | 5.0 | 10.0 | 0.00 | 0.00 | 0.00 | 87 | 1014.6 |
| 20260502195016 | 53 | 158 | 5.0 | 11.0 | 0.00 | 0.00 | 0.00 | 87 | 1014.6 |
| 20260502194537 | 53 | 203 | 3.0 | 8.0 | 0.00 | 0.00 | 0.00 | 87 | 1014.5 |
| 20260502194016 | 53 | 203 | 3.0 | 8.0 | 0.00 | 0.00 | 0.00 | 87 | 1014.7 |
| 20260502193516 | 53 | 158 | 4.0 | 7.0 | 0.00 | 0.00 | 0.00 | 88 | 1014.6 |
| 20260502193016 | 53 | 158 | 5.0 | 9.0 | 0.00 | 0.00 | 0.00 | 88 | 1014.7 |
| 20260502192516 | 52 | 158 | 3.0 | 6.0 | 0.00 | 0.00 | 0.00 | 89 | 1014.7 |
| 20260502192016 | 52 | 180 | 4.0 | 10.0 | 0.00 | 0.00 | 0.00 | 90 | 1014.6 |
| 20260502191516 | 52 | 180 | 4.0 | 6.0 | 0.00 | 0.00 | 0.00 | 90 | 1014.7 |
| 20260502191016 | 52 | 180 | 5.0 | 10.0 | 0.00 | 0.00 | 0.00 | 91 | 1014.5 |
| 20260502190516 | 51 | 158 | 4.0 | 7.0 | 0.00 | 0.00 | 0.00 | 91 | 1014.6 |
| 20260502190021 | 51 | 180 | 3.0 | 8.0 | 0.00 | 0.00 | 0.00 | 92 | 1014.6 |
| 20260502185516 | 51 | 158 | 3.0 | 7.0 | 0.00 | 0.00 | 0.00 | 92 | 1014.6 |
| 20260502185016 | 51 | 180 | 4.0 | 9.0 | 0.00 | 0.00 | 0.00 | 92 | 1014.6 |
| 20260502184516 | 51 | 158 | 4.0 | 9.0 | 0.00 | 0.00 | 0.00 | 92 | 1014.5 |